User: anonymous   Login
Location: ???????
(55.4362°N, 38.1183°E)
Time: 09:14:30
(UTC+00:00)
Language:

MINOTAUR 4 R/B - Orbit

View from above orbital plane
View from above orbital plane
View from above satellite
View from above satellite

Ground track
Ground track

The orbit data is extracted from the following two-line orbital elements,

1 37169U 10048B   21263.44239402  .00001602  00000-0  59097-4 0  9994
2 37169  97.9716  49.0611 0007108  90.2391 269.9662 15.29445821610129
Epoch (UTC): 20 September 2021 10:37:02
Eccentricity: 0.0007108
inclination: 97.9716°
perigee height: 472 km
apogee height: 482 km
right ascension of ascending node: 49.0611°
argument of perigee: 90.2391°
revolutions per day: 15.29445821
mean anomaly at epoch: 269.9662°
orbit number at epoch: 61012

The dashed part of the orbit path shows where the satellite is in the earth's shadow,  

DLR